TimeEST,TemperatureF,Dew PointF,Humidity,Sea Level PressureIn,VisibilityMPH,Wind Direction,Wind SpeedMPH,Gust SpeedMPH,PrecipitationIn,Events,Conditions,WindDirDegrees,DateUTC
12:53 AM,12.9,-0.0,56,30.16,10.0,South,15.0,-,N/A,,Clear,180,2014-01-04 05:53:00
1:53 AM,14.0,1.9,59,30.14,10.0,South,16.1,-,N/A,,Clear,180,2014-01-04 06:53:00
2:53 AM,12.0,1.0,61,30.12,10.0,South,15.0,-,N/A,,Clear,180,2014-01-04 07:53:00
3:53 AM,12.0,1.0,61,30.09,10.0,South,12.7,-,N/A,,Clear,180,2014-01-04 08:53:00
4:53 AM,16.0,3.9,59,30.06,10.0,SSW,18.4,26.5,N/A,,Clear,200,2014-01-04 09:53:00
5:53 AM,17.1,3.9,56,30.04,10.0,SSW,18.4,-,N/A,,Clear,200,2014-01-04 10:53:00
6:53 AM,17.1,5.0,59,30.03,10.0,SSW,15.0,-,N/A,,Clear,200,2014-01-04 11:53:00
7:53 AM,19.0,6.1,57,30.01,10.0,SSW,16.1,-,N/A,,Clear,200,2014-01-04 12:53:00
8:53 AM,21.0,7.0,55,29.99,10.0,SSW,17.3,26.5,N/A,,Clear,210,2014-01-04 13:53:00
9:53 AM,23.0,9.0,55,29.99,10.0,SSW,24.2,28.8,N/A,,Clear,210,2014-01-04 14:53:00
10:53 AM,24.1,10.0,55,29.99,10.0,SSW,17.3,29.9,N/A,,Clear,210,2014-01-04 15:53:00
11:53 AM,26.1,10.9,53,29.97,10.0,SSW,19.6,25.3,N/A,,Clear,210,2014-01-04 16:53:00
12:53 PM,28.9,14.0,54,29.94,10.0,SW,17.3,28.8,N/A,,Clear,220,2014-01-04 17:53:00
1:53 PM,30.0,15.1,54,29.93,10.0,SSW,21.9,32.2,N/A,,Clear,210,2014-01-04 18:53:00
2:53 PM,30.0,17.1,59,29.94,10.0,SSW,19.6,-,N/A,,Clear,210,2014-01-04 19:53:00
3:53 PM,30.9,17.1,57,29.98,10.0,SW,16.1,21.9,N/A,,Clear,220,2014-01-04 20:53:00
4:53 PM,30.9,18.0,59,29.99,10.0,SSW,16.1,-,N/A,,Clear,210,2014-01-04 21:53:00
5:53 PM,30.9,19.0,61,29.99,10.0,SSW,12.7,-,N/A,,Clear,200,2014-01-04 22:53:00
6:53 PM,30.9,19.0,61,30.01,10.0,SSW,11.5,-,N/A,,Overcast,210,2014-01-04 23:53:00
7:53 PM,32.0,19.0,59,30.03,10.0,SSW,12.7,-,N/A,,Overcast,210,2014-01-05 00:53:00
8:53 PM,32.0,19.9,61,30.03,10.0,SW,10.4,-,N/A,,Overcast,220,2014-01-05 01:53:00
9:53 PM,32.0,21.0,64,30.04,10.0,SSW,8.1,-,N/A,,Overcast,210,2014-01-05 02:53:00
10:53 PM,32.0,21.0,64,30.04,10.0,SW,4.6,-,N/A,,Overcast,220,2014-01-05 03:53:00
11:53 PM,30.9,21.9,69,30.05,10.0,Calm,Calm,-,N/A,,Overcast,0,2014-01-05 04:53:00